Back to catalog

STARLINK-4489

AliveCommunicationsVLEO
NORAD 53542·PAYLOAD·🇺🇸 United States

Launched Aug 19, 2022 from Cape Canaveral Space Force Station

Loading…

Next Passes (next 24 hours)

TLE

FreshSource: CelesTrak SupGP

Epoch: Sep 14, 2026, 22:24 UTC

1 53542C 22101R   26257.93381944  .00052234  00000+0  15436-2 0  2571
2 53542  53.1572 279.7792 0001084  87.7800 287.8844 15.34357724    13

Track STARLINK-4489 in real time with AllMySat

Download on the App Store